Temperature
14 14 14 15 18 20 21 21 21 20 21 20 20 21 22 23 23 22 18 18 18 18 18 18 17 17 17 17 17 16 17 17 17 17 16 16 16 16 16 16 16 15 15 15 16 15 15 15 15
13 14 14 16 19 21 21 21 20 20 20 19 19 20 21 21 20 19 18 18 18 18 18 17 17 17 17 16 16 16 16 16 16 16 16 16 16 16 16 16 15 15 15 15 15 15 15 15 15
13 14 16 18 19 21 21 20 20 20 19 19 20 20 20 20 19 18 17 18 18 17 17 17 17 17 17 16 16 16 16 16 16 16 16 16 16 16 16 16 15 15 15 15 15 15 15 15 14
13 14 16 18 19 19 20 20 19 19 19 18 19 20 19 17 17 16 17 17 17 17 17 17 17 17 16 16 16 16 16 16 16 16 16 16 16 16 16 15 15 15 15 15 15 15 15 14 14
13 16 17 17 18 19 19 18 18 19 19 18 18 20 19 17 16 16 17 17 17 17 17 17 17 17 16 16 16 16 16 16 16 16 16 16 15 15 15 15 15 15 15 14 14 14 14 14 14
14 16 17 18 19 18 18 17 17 18 18 18 18 19 19 16 16 16 16 16 16 16 16 16 16 16 16 16 16 16 16 16 16 15 15 15 15 15 15 15 15 14 14 14 14 14 14 14 14
15 16 17 18 18 18 17 16 17 18 18 18 17 18 18 16 16 16 15 15 16 16 16 16 16 16 16 16 16 16 16 16 15 15 15 15 15 15 15 15 14 14 14 14 14 14 14 14 13
13 16 16 16 17 17 16 15 15 15 17 16 15 17 18 16 15 15 15 15 15 15 16 15 16 16 16 16 16 16 16 16 15 15 15 15 15 15 15 14 14 14 14 14 14 14 14 13 13
12 15 16 16 16 16 15 15 15 14 14 15 15 15 15 14 14 14 14 14 15 15 15 15 15 15 15 15 15 16 16 15 15 15 15 15 14 14 14 14 14 14 14 14 13 13 13 13 13
13 14 15 15 15 15 14 14 14 14 15 15 15 14 14 13 13 13 13 14 14 14 14 14 15 15 15 15 15 15 15 15 15 15 14 14 14 14 13 13 14 14 14 13 13 13 13 12 12
13 14 14 13 13 13 13 13 13 13 15 15 15 14 13 13 13 13 13 13 13 13 14 14 14 14 14 15 15 15 15 15 15 14 14 14 14 14 13 13 13 13 13 13 13 13 12 12 12
12 12 12 12 11 11 12 12 13 13 13 13 13 12 12 12 12 12 12 13 13 13 13 14 14 14 14 14 14 14 14 14 14 14 14 14 13 13 13 13 13 13 13 13 12 12 12 12 12
12 12 11 10 10 11 11 12 12 12 12 12 12 12 12 12 12 12 12 12 12 12 13 13 13 14 14 14 14 14 14 14 13 14 14 13 13 13 13 13 13 13 13 12 12 12 12 12 11
11 11 10 10 10 11 11 12 12 12 12 12 11 12 12 12 11 11 11 12 12 12 12 13 13 13 13 13 13 13 13 13 13 13 13 13 13 13 13 13 13 13 12 12 12 12 12 12 11
9 10 11 11 11 11 11 12 13 12 12 12 12 12 11 11 11 11 11 11 11 12 12 12 12 12 13 13 13 13 13 13 13 13 13 13 13 13 12 12 12 12 12 12 12 12 12 11 11
10 11 12 12 11 11 11 13 14 12 12 12 12 12 11 11 11 11 11 11 11 11 11 12 12 12 12 12 13 12 12 12 12 12 13 13 13 12 12 12 12 12 12 12 12 12 11 11 11
11 12 12 12 12 11 11 12 14 12 12 12 12 12 11 11 11 10 10 11 11 11 11 11 11 12 12 12 12 12 12 12 12 12 12 12 12 12 12 12 12 12 12 12 11 11 11 11 11
12 12 12 12 12 11 11 12 13 13 12 12 12 12 11 11 10 10 10 10 10 10 10 11 11 11 11 11 11 12 12 12 12 12 12 12 12 12 12 12 12 12 11 11 11 11 11 11 10
10 10 11 12 11 10 11 12 13 13 12 12 12 12 11 11 10 10 10 10 10 10 10 10 10 11 11 11 11 11 11 11 11 12 12 12 12 12 12 12 12 12 11 11 11 11 11 10 10
9 10 10 11 11 10 11 11 13 13 12 12 11 11 11 10 10 10 10 10 10 10 10 10 10 10 10 10 11 11 11 11 11 11 11 11 11 11 11 11 11 11 11 11 11 11 10 10 10
9 10 10 10 10 10 10 12 13 12 12 11 11 10 10 10 10 10 9 9 9 10 10 10 10 10 10 10 10 10 10 10 10 10 10 11 11 11 11 11 11 11 11 11 11 10 10 10 10
10 10 9 9 9 10 9 11 13 12 12 12 11 11 10 10 9 9 9 9 9 9 9 9 9 9 10 10 10 10 10 10 10 10 10 10 10 10 10 10 10 10 10 10 10 10 10 10 10
10 9 9 9 9 8 9 9 13 12 11 12 12 11 10 9 9 9 9 9 9 9 9 9 9 9 9 9 9 9 9 9 9 9 9 9 10 10 10 10 10 10 10 10 10 10 10 10 10
8 8 8 8 8 8 10 10 12 12 12 11 11 10 9 9 8 8 8 8 8 9 9 9 9 9 9 9 9 9 9 9 9 9 9 9 9 9 9 9 9 9 9 10 10 10 10 10 10
8 9 10 10 9 11 10 9 11 12 11 11 11 10 9 8 8 8 8 8 8 8 8 8 8 8 9 9 9 9 9 9 9 8 8 9 9 9 9 9 9 9 9 9 9 9 9 9 9
8 9 9 10 11 12 10 10 12 11 10 10 9 9 8 8 8 8 8 8 8 8 8 8 8 8 8 8 8 8 8 8 8 8 8 8 8 8 8 8 8 8 9 9 9 9 9 9 9
8 9 9 8 8 8 11 11 11 11 10 10 9 9 8 8 7 7 7 7 7 7 8 7 7 8 8 8 8 8 8 8 8 8 8 8 8 8 8 8 8 8 8 9 9 9 9 9 9
8 9 8 8 8 9 11 11 11 11 10 10 10 9 8 8 7 7 7 7 7 7 7 7 7 7 7 7 7 7 7 8 8 7 7 8 8 8 7 8 8 8 8 8 8 8 8 8 9
7 7 8 8 8 9 10 11 11 10 10 10 9 9 8 7 7 6 6 6 6 6 7 7 7 7 7 7 7 7 7 7 7 7 7 7 7 7 7 7 7 8 8 8 8 8 8 8 8
8 8 8 7 7 7 8 10 11 10 9 9 8 8 7 7 6 6 6 6 6 6 6 6 6 6 6 6 6 6 6 7 7 7 7 7 7 7 7 7 7 7 7 7 7 8 8 8 8
Wind_Speed
2 2 2 3 5 6 9 7 5 4 3 2 3 4 4 4 3 1 4 6 6 2 4 8 7 8 8 9 11 12 12 13 14 15 15 15 15 14 14 14 13 14 13 13 13 14 14 14 14
1 2 4 4 6 9 8 7 8 6 2 2 4 5 5 4 2 3 5 7 5 1 3 7 7 7 8 8 9 11 12 12 13 14 14 15 15 15 15 14 13 13 13 13 14 14 14 14 14
2 2 4 5 7 9 5 3 4 3 3 4 3 4 4 3 1 3 7 6 4 1 2 5 6 6 7 9 9 10 11 12 13 13 14 15 15 15 15 14 14 14 13 13 14 14 14 14 14
3 4 4 7 12 9 6 2 1 2 2 2 4 4 2 1 3 5 8 6 4 2 2 5 5 6 7 8 8 9 10 11 13 13 14 14 15 15 15 14 14 14 14 14 14 14 15 14 14
3 4 7 10 12 9 8 6 5 6 4 3 4 5 4 1 4 7 7 6 4 2 1 4 5 6 7 7 7 9 9 10 12 13 14 14 14 14 15 15 15 14 14 14 14 15 15 14 14
4 4 7 11 12 9 8 7 8 9 9 7 7 8 6 1 5 8 7 6 5 3 2 3 6 6 7 8 8 8 9 9 11 12 13 14 14 15 15 15 15 15 15 15 15 15 15 15 15
5 5 8 10 9 9 7 5 7 9 10 8 7 8 7 3 6 8 8 7 5 4 3 3 5 7 8 8 8 8 8 9 10 12 13 13 13 14 15 15 15 15 15 15 15 15 15 15 15
3 4 7 9 10 8 4 5 5 8 9 6 6 8 7 6 8 10 9 7 6 4 4 4 5 6 7 9 9 8 9 9 10 11 12 12 13 14 15 15 16 16 16 16 16 16 16 15 15
4 6 9 8 8 6 3 5 6 7 10 9 9 11 10 11 11 11 9 8 6 5 5 5 5 5 6 7 8 9 10 9 10 10 12 12 12 13 14 15 15 16 16 16 16 16 15 15 14
6 8 9 5 6 6 7 9 9 9 13 14 13 12 11 12 11 11 11 10 8 7 6 6 7 6 6 6 7 8 9 9 10 9 11 11 11 11 11 12 14 15 16 16 16 16 15 14 12
6 8 6 7 7 8 10 11 10 12 15 14 14 14 12 12 12 12 12 11 10 9 8 7 7 7 7 5 6 5 6 7 9 9 10 9 8 8 9 9 11 13 14 14 14 15 13 12 11
5 7 8 8 7 9 12 11 12 15 16 14 14 14 15 14 13 12 12 12 11 10 10 8 8 8 8 7 6 6 5 5 6 7 9 8 6 7 8 8 9 10 10 11 11 10 12 12 12
9 7 8 10 11 13 15 17 17 18 17 14 14 14 15 14 13 12 11 11 11 11 10 9 7 8 8 7 6 6 6 6 7 7 8 9 7 7 8 8 9 10 10 11 11 11 12 12 11
5 8 10 12 13 11 14 17 14 16 12 12 13 14 13 13 13 12 12 11 11 10 10 9 8 8 8 7 7 6 6 6 7 7 8 9 8 7 8 8 8 9 10 11 11 12 11 10 10
5 8 11 9 9 6 9 14 13 12 10 13 14 13 13 13 12 12 12 11 11 10 10 8 7 7 9 8 8 7 6 6 7 7 9 10 9 9 8 8 9 9 10 11 10 12 10 9 10
4 6 6 4 6 5 7 13 9 7 11 15 15 13 12 11 11 11 10 10 10 10 9 8 7 7 8 8 7 6 6 6 7 7 8 10 11 10 9 8 9 10 10 9 9 10 10 10 10
5 6 8 7 5 5 7 15 12 11 14 16 15 13 11 10 10 9 9 9 9 9 8 8 7 7 7 8 7 7 7 7 6 7 7 9 10 11 10 9 8 10 9 9 10 10 10 11 11
5 7 8 9 5 8 14 19 20 16 15 16 14 12 10 9 9 8 8 8 8 8 8 7 7 7 7 7 6 5 6 6 6 7 8 9 9 10 10 9 10 10 9 10 11 12 11 10 10
7 9 13 12 9 10 16 21 21 18 14 13 11 10 9 8 8 7 6 7 7 7 7 7 7 7 6 6 6 6 6 6 7 7 9 10 10 10 10 9 10 10 10 11 12 11 12 10 9
9 11 12 11 5 9 15 21 19 14 10 9 9 8 7 7 6 5 5 6 6 7 7 7 7 7 7 7 6 6 6 6 7 7 9 11 11 11 10 11 10 11 10 12 13 12 10 9 10
10 11 10 11 12 7 10 13 8 5 6 6 7 7 6 6 6 6 6 6 6 7 6 7 7 8 8 8 5 5 5 5 6 7 8 10 11 12 12 12 11 11 12 11 13 14 14 11 11
8 7 9 10 9 6 4 8 8 5 7 6 5 5 5 5 6 6 6 6 6 7 6 8 8 7 6 7 7 8 7 7 8 7 8 10 11 12 12 13 13 12 11 13 14 15 13 13 12
5 4 7 8 8 8 7 7 8 4 7 7 5 4 4 5 5 5 6 6 6 6 6 7 7 7 6 7 8 8 8 8 7 7 9 9 10 11 12 12 12 13 12 13 15 15 15 13 13
3 2 4 4 4 6 6 7 7 3 5 5 4 3 4 5 5 5 6 6 6 6 6 6 7 7 6 8 9 9 10 9 9 9 9 8 8 9 11 12 12 13 12 13 13 14 16 15 15
3 2 3 3 4 5 2 6 8 4 4 4 4 4 5 6 6 7 7 7 7 7 6 5 6 7 7 8 9 10 10 10 10 10 9 9 8 8 10 11 12 12 12 13 12 13 15 16 16
6 4 4 5 5 5 4 7 6 3 4 4 5 6 6 7 7 7 8 8 8 8 7 6 6 7 7 8 9 9 10 8 8 10 9 9 9 9 11 11 12 13 13 13 13 12 14 14 16
5 6 3 4 5 7 7 7 7 5 5 4 5 6 7 8 8 8 9 9 9 9 8 7 7 7 7 8 9 9 9 9 9 9 10 8 8 8 10 11 11 12 13 14 13 11 14 14 15
4 4 4 4 4 7 8 8 6 5 5 5 6 8 8 9 9 9 10 10 10 9 8 8 7 8 8 8 7 7 8 8 9 9 9 9 9 9 10 10 10 11 11 12 13 12 13 15 14
7 6 6 5 5 6 8 7 2 5 5 6 8 9 9 11 10 10 10 10 10 10 8 7 7 7 7 7 7 7 8 7 8 9 10 9 9 10 10 10 10 11 11 11 12 13 13 14 14
8 10 10 7 7 7 8 9 2 4 4 7 9 10 11 11 11 11 11 11 11 10 9 8 7 7 7 7 7 8 7 7 8 9 9 9 9 10 10 10 10 11 11 11 12 13 13 14 15
Wind_Direction
309 227 203 209 219 228 235 224 220 198 209 243 261 251 257 258 270 26 22 360 347 325 182 172 178 175 173 173 174 171 172 171 171 171 170 169 167 165 163 163 161 156 150 149 147 142 140 135 131
271 194 197 213 231 228 229 221 217 221 242 284 253 247 248 248 306 358 8 352 342 341 178 175 169 177 177 176 172 173 175 176 175 175 174 171 171 170 168 167 162 158 153 150 144 141 139 137 133
205 218 211 215 227 232 221 185 215 230 263 264 255 253 264 276 337 349 359 347 345 20 169 166 161 178 181 180 179 177 179 180 180 178 178 176 175 174 172 170 165 161 156 152 147 143 142 140 136
190 190 217 232 231 233 240 184 169 234 227 265 271 254 233 13 349 349 353 353 351 13 165 162 166 184 184 182 184 184 185 185 184 183 182 181 179 178 176 172 168 164 160 156 152 148 146 145 143
204 208 220 232 238 237 239 252 262 265 264 270 283 270 260 99 1 349 350 349 342 339 239 181 177 194 193 193 191 192 191 190 190 190 187 185 183 181 177 175 173 170 166 163 160 155 153 151 149
188 213 228 237 237 237 241 249 257 264 267 275 281 275 262 287 354 350 346 338 329 315 264 214 191 201 204 204 202 198 196 194 193 194 194 191 188 184 182 178 175 173 171 169 167 164 160 157 156
209 217 239 249 250 246 243 248 253 265 266 272 283 273 257 280 342 337 334 329 323 309 268 242 214 209 209 211 211 207 200 196 197 198 198 195 192 189 186 183 180 178 176 175 173 171 166 163 162
222 228 239 241 246 247 245 249 258 272 273 284 273 264 264 317 329 324 317 314 312 301 272 252 233 224 220 215 208 207 204 200 199 200 196 193 194 193 189 187 185 182 180 179 176 173 170 168 167
207 231 239 237 241 244 249 266 269 274 268 261 255 269 290 306 308 306 304 300 298 290 274 260 247 235 232 226 214 209 206 201 197 200 191 191 202 201 196 195 185 186 184 182 179 175 172 169 168
206 232 243 246 250 263 275 282 286 272 265 264 263 267 279 288 292 290 288 289 286 283 278 263 254 243 237 229 220 216 214 208 208 208 201 206 208 205 200 188 184 185 184 183 182 175 174 178 177
214 240 254 252 260 272 279 281 276 271 267 268 275 281 288 287 284 281 280 277 278 276 274 268 257 247 238 232 226 222 217 212 214 211 209 211 210 202 197 190 187 190 188 189 183 181 188 191 186
230 245 255 262 265 269 273 276 272 259 265 280 281 283 283 281 278 275 276 276 274 273 270 267 263 248 240 235 229 226 222 218 217 213 212 210 211 208 202 201 197 195 195 192 191 193 192 195 194
237 253 259 267 268 269 270 266 270 267 269 274 274 276 275 273 273 272 272 273 273 270 270 264 264 256 241 233 231 228 225 224 219 215 214 214 214 212 208 209 203 201 198 195 196 198 195 196 197
251 261 272 277 272 264 266 268 262 265 267 270 272 275 275 271 270 272 270 271 272 269 267 265 257 260 245 231 230 230 227 225 225 219 218 217 215 214 211 213 211 207 202 200 199 201 198 199 199
264 275 275 261 258 255 275 268 246 258 267 274 275 276 276 273 272 271 271 270 269 268 265 263 256 257 251 233 230 231 226 226 224 221 219 218 218 216 215 215 212 209 204 203 202 202 200 200 200
247 256 263 246 254 253 263 270 261 266 278 281 279 277 277 275 271 271 273 272 269 266 262 260 256 251 254 239 230 230 226 226 226 223 221 220 220 218 218 217 214 209 204 202 202 201 200 201 201
226 255 270 278 245 254 255 273 278 285 285 282 280 278 277 277 276 276 273 270 269 268 263 257 256 250 256 244 229 231 230 226 228 225 222 221 221 221 220 218 216 209 208 205 204 203 203 204 204
254 269 274 276 269 269 268 273 282 286 284 281 281 277 275 276 279 283 278 270 267 268 263 258 254 251 254 245 228 227 230 230 228 227 223 221 221 221 222 220 217 210 211 208 206 205 206 208 206
270 269 277 282 285 279 274 279 284 287 280 277 278 278 277 279 280 284 281 272 267 263 263 260 257 254 252 240 227 226 229 232 232 230 227 222 223 222 222 220 216 213 213 213 211 209 205 209 200
255 267 278 288 280 285 285 284 283 279 271 276 282 282 282 286 285 285 284 277 269 262 262 264 259 257 251 239 230 230 235 238 237 235 232 228 225 224 222 220 218 215 216 216 213 210 209 207 198
251 253 273 288 305 279 294 286 266 278 271 278 286 285 286 288 291 290 283 279 273 267 262 264 260 257 248 235 228 231 236 244 240 238 233 230 228 227 225 222 220 220 218 217 215 210 211 209 205
260 251 264 280 293 291 306 295 283 276 282 287 287 287 288 291 290 290 288 284 282 277 266 260 263 254 249 234 226 226 231 241 246 241 238 235 232 230 228 225 223 222 223 220 217 216 215 211 210
255 282 267 271 274 282 254 257 280 273 276 286 292 300 307 305 303 298 293 291 289 287 270 262 261 256 253 241 231 232 239 246 251 244 242 241 237 233 230 228 226 225 225 224 220 217 217 214 215
233 270 267 245 248 260 241 239 280 260 283 303 308 317 326 329 320 313 306 303 298 298 284 266 260 258 253 248 239 236 241 246 250 246 242 241 240 236 232 230 230 228 228 226 224 220 219 217 217
209 253 277 255 237 253 201 248 264 290 299 298 308 317 329 336 325 320 319 313 305 301 296 276 263 265 263 255 247 242 241 243 247 247 240 242 242 240 234 232 232 232 230 226 225 225 222 220 218
206 218 243 272 275 288 253 252 271 300 305 299 306 316 322 326 329 326 320 319 315 307 299 281 268 267 269 265 256 246 243 241 244 247 244 242 243 241 240 235 236 235 233 229 226 228 225 222 221
194 214 244 265 283 276 259 263 280 275 283 295 313 320 316 321 326 326 323 319 315 307 299 285 277 274 276 271 265 254 249 245 247 252 250 248 247 245 241 239 240 239 236 232 228 229 228 224 224
239 194 189 220 263 270 270 264 265 257 270 299 315 317 314 319 323 325 325 324 315 311 299 286 285 279 278 274 266 262 257 253 251 253 256 253 255 249 241 240 241 242 239 236 230 231 232 226 225
186 193 212 224 247 265 280 274 256 256 275 295 305 310 312 316 320 322 320 319 320 316 306 295 287 285 285 282 274 265 263 261 259 256 257 257 257 253 241 240 242 241 239 237 233 231 232 228 227
221 217 206 223 236 240 266 274 258 255 285 300 307 311 311 312 315 317 318 319 321 321 315 301 287 283 283 285 276 266 263 263 262 259 258 258 256 253 246 242 243 242 239 238 235 233 232 229 227
Height
1507 1508 1510 1513 1511 1504 1496 1493 1494 1496 1496 1498 1498 1497 1495 1494 1494 1499 1499 1495 1493 1493 1493 1493 1494 1495 1497 1498 1500 1501 1503 1504 1506 1507 1508 1509 1510 1511 1512 1513 1514 1514 1515 1516 1517 1518 1518 1519 1519
1507 1509 1512 1511 1504 1498 1493 1492 1494 1495 1497 1499 1498 1497 1496 1495 1497 1497 1496 1494 1493 1493 1493 1493 1494 1495 1497 1498 1499 1501 1502 1504 1505 1506 1508 1509 1510 1511 1512 1513 1513 1514 1515 1516 1517 1518 1518 1519 1519
1507 1509 1511 1506 1499 1491 1489 1492 1494 1496 1498 1498 1497 1497 1496 1496 1497 1497 1495 1493 1493 1493 1493 1493 1494 1495 1496 1498 1499 1500 1502 1503 1504 1506 1507 1508 1509 1510 1511 1512 1513 1514 1515 1516 1517 1517 1518 1519 1519
1508 1510 1510 1504 1495 1491 1491 1493 1496 1496 1497 1498 1497 1495 1496 1497 1497 1496 1494 1493 1493 1493 1492 1492 1493 1494 1496 1497 1498 1499 1501 1502 1503 1505 1506 1507 1508 1510 1511 1511 1512 1513 1514 1515 1516 1517 1518 1518 1519
1508 1508 1504 1498 1493 1492 1494 1496 1497 1496 1496 1497 1497 1494 1495 1496 1495 1494 1493 1492 1492 1492 1492 1492 1492 1493 1495 1496 1497 1498 1499 1501 1502 1503 1505 1506 1507 1509 1510 1510 1511 1513 1514 1515 1516 1516 1517 1518 1519
1508 1505 1500 1492 1489 1492 1494 1497 1497 1496 1495 1496 1497 1494 1493 1494 1493 1492 1491 1491 1491 1491 1491 1491 1491 1492 1493 1495 1496 1497 1498 1499 1501 1502 1503 1504 1506 1507 1508 1509 1510 1511 1513 1514 1515 1516 1517 1517 1518
1506 1503 1495 1491 1490 1492 1494 1497 1496 1495 1494 1495 1496 1494 1492 1493 1492 1491 1490 1489 1489 1489 1489 1489 1490 1490 1491 1492 1494 1495 1496 1497 1499 1500 1502 1503 1504 1505 1506 1508 1509 1510 1511 1512 1513 1515 1516 1517 1517
1504 1503 1497 1493 1492 1491 1495 1496 1497 1496 1494 1496 1496 1492 1490 1491 1489 1488 1488 1487 1487 1487 1487 1487 1487 1488 1489 1490 1491 1492 1494 1495 1497 1498 1499 1501 1502 1503 1504 1505 1506 1508 1509 1511 1512 1513 1514 1515 1517
1504 1503 1493 1491 1492 1491 1496 1496 1496 1496 1494 1493 1493 1492 1490 1489 1487 1486 1485 1485 1484 1484 1484 1484 1485 1485 1486 1487 1488 1490 1491 1492 1494 1495 1497 1498 1499 1500 1502 1503 1504 1506 1507 1509 1510 1512 1513 1514 1515
1503 1497 1491 1493 1493 1494 1495 1495 1495 1493 1490 1489 1489 1488 1488 1486 1485 1484 1482 1482 1481 1481 1480 1481 1481 1482 1482 1483 1485 1486 1487 1489 1490 1492 1493 1495 1497 1498 1499 1500 1502 1503 1505 1507 1508 1509 1511 1513 1514
1499 1495 1494 1495 1496 1496 1494 1493 1493 1491 1485 1485 1485 1484 1484 1483 1481 1480 1479 1478 1477 1477 1476 1476 1477 1478 1479 1479 1480 1482 1483 1485 1487 1488 1490 1491 1493 1494 1496 1497 1499 1500 1502 1504 1505 1507 1509 1511 1512
1498 1496 1496 1495 1495 1494 1493 1491 1489 1486 1483 1482 1482 1481 1479 1478 1477 1476 1475 1474 1473 1473 1472 1472 1473 1473 1474 1475 1476 1477 1479 1480 1482 1484 1486 1487 1489 1490 1492 1493 1495 1497 1499 1501 1502 1504 1506 1508 1509
1496 1494 1495 1494 1494 1492 1490 1487 1485 1480 1479 1478 1477 1476 1474 1473 1472 1471 1470 1469 1469 1468 1468 1468 1468 1469 1470 1471 1471 1473 1474 1476 1478 1479 1481 1483 1484 1486 1488 1489 1491 1492 1494 1496 1498 1500 1502 1504 1506
1495 1494 1493 1492 1490 1488 1486 1481 1481 1473 1474 1474 1472 1471 1469 1468 1467 1466 1465 1465 1464 1463 1463 1463 1464 1464 1465 1466 1467 1468 1469 1471 1473 1474 1476 1478 1480 1481 1483 1485 1486 1488 1490 1492 1494 1496 1498 1500 1502
1495 1493 1488 1486 1486 1484 1484 1474 1471 1470 1471 1469 1467 1466 1464 1463 1462 1461 1460 1459 1459 1459 1459 1458 1459 1459 1460 1460 1462 1463 1465 1466 1468 1469 1471 1473 1475 1476 1478 1480 1482 1483 1485 1487 1490 1492 1494 1496 1498
1492 1488 1482 1480 1482 1481 1483 1466 1464 1466 1466 1464 1462 1460 1459 1457 1456 1456 1455 1454 1454 1454 1454 1454 1454 1454 1455 1456 1457 1458 1460 1461 1463 1464 1466 1468 1470 1471 1473 1475 1477 1479 1480 1482 1485 1487 1489 1491 1493
1486 1481 1478 1476 1478 1478 1477 1464 1460 1462 1462 1459 1456 1455 1453 1452 1451 1451 1450 1450 1449 1449 1449 1449 1450 1450 1451 1452 1453 1454 1455 1456 1458 1459 1460 1462 1464 1466 1468 1470 1472 1474 1475 1477 1480 1482 1484 1487 1489
1479 1477 1476 1474 1474 1475 1471 1462 1456 1457 1457 1454 1451 1450 1448 1447 1446 1446 1445 1445 1444 1444 1444 1444 1445 1446 1446 1447 1448 1449 1450 1451 1452 1453 1454 1456 1458 1461 1463 1464 1466 1468 1470 1472 1474 1477 1479 1482 1484
1482 1480 1476 1471 1472 1473 1464 1457 1451 1450 1450 1448 1446 1445 1444 1443 1442 1441 1440 1440 1440 1440 1440 1440 1440 1441 1441 1441 1442 1443 1444 1445 1447 1448 1449 1451 1453 1455 1457 1458 1460 1462 1464 1466 1469 1472 1474 1477 1479
1483 1480 1474 1469 1471 1470 1460 1452 1445 1444 1443 1443 1442 1441 1440 1439 1438 1437 1436 1436 1435 1435 1435 1435 1436 1436 1436 1437 1437 1438 1439 1440 1441 1443 1444 1445 1447 1448 1450 1452 1454 1456 1458 1461 1463 1466 1468 1470 1473
1479 1476 1471 1470 1468 1465 1463 1444 1438 1439 1439 1439 1439 1438 1437 1435 1434 1433 1432 1431 1431 1431 1430 1431 1431 1431 1431 1432 1432 1434 1434 1435 1436 1437 1438 1439 1440 1442 1444 1445 1447 1449 1452 1454 1456 1459 1461 1463 1466
1472 1472 1473 1472 1470 1462 1465 1449 1431 1434 1434 1434 1434 1434 1433 1432 1431 1429 1428 1427 1427 1426 1426 1427 1426 1426 1426 1427 1427 1428 1428 1429 1430 1431 1432 1433 1434 1436 1437 1439 1441 1443 1445 1447 1449 1452 1455 1457 1459
1471 1473 1473 1471 1469 1468 1460 1460 1432 1433 1432 1430 1431 1431 1430 1429 1427 1426 1425 1424 1423 1423 1423 1422 1422 1421 1422 1422 1423 1423 1424 1425 1426 1427 1427 1428 1429 1430 1431 1433 1434 1436 1438 1440 1442 1445 1448 1450 1453
1474 1473 1471 1470 1468 1464 1452 1452 1430 1428 1429 1428 1429 1429 1429 1427 1426 1424 1422 1421 1420 1419 1418 1418 1417 1417 1417 1418 1418 1418 1419 1419 1420 1421 1421 1422 1423 1424 1425 1426 1428 1429 1431 1433 1435 1437 1440 1443 1446
1473 1469 1462 1458 1457 1446 1449 1448 1432 1427 1429 1430 1429 1429 1427 1426 1424 1422 1420 1418 1417 1415 1414 1413 1413 1412 1412 1413 1413 1413 1413 1414 1415 1415 1415 1416 1416 1417 1418 1419 1421 1423 1424 1426 1428 1430 1433 1435 1438
1468 1467 1464 1458 1445 1438 1446 1440 1427 1429 1430 1430 1429 1428 1426 1425 1423 1421 1418 1416 1413 1412 1411 1410 1409 1408 1408 1408 1408 1408 1408 1409 1409 1409 1409 1410 1410 1411 1412 1413 1414 1416 1417 1419 1421 1423 1425 1428 1430
1466 1464 1464 1465 1461 1456 1436 1431 1428 1427 1427 1427 1427 1426 1425 1424 1422 1419 1417 1414 1412 1409 1407 1406 1405 1404 1404 1403 1403 1403 1403 1403 1403 1404 1404 1404 1404 1405 1406 1406 1407 1409 1410 1412 1414 1415 1418 1420 1422
1465 1463 1466 1464 1459 1444 1428 1427 1423 1422 1423 1425 1425 1425 1424 1423 1420 1417 1415 1412 1409 1406 1404 1402 1401 1400 1400 1399 1398 1398 1398 1397 1398 1398 1398 1398 1398 1399 1399 1399 1400 1402 1403 1405 1406 1408 1410 1413 1415
1465 1465 1462 1459 1456 1448 1432 1421 1420 1422 1423 1424 1424 1424 1423 1421 1418 1416 1412 1409 1406 1403 1400 1398 1397 1397 1396 1394 1393 1393 1393 1392 1393 1393 1393 1393 1392 1393 1392 1393 1394 1395 1396 1398 1399 1401 1403 1405 1407
1457 1455 1457 1458 1455 1452 1441 1425 1421 1423 1424 1425 1424 1423 1422 1419 1417 1414 1410 1406 1403 1400 1397 1396 1394 1393 1391 1390 1389 1389 1388 1388 1388 1387 1387 1387 1387 1387 1386 1387 1387 1388 1389 1390 1392 1393 1395 1397 1399